Location: Recife
(8.0585°S, 34.8848°W)
Time: 20:26:26
(UTC-03:00)

Vanguard 2 Rocket - Pass Details

Date: 15 April 2026
Orbit: 553 x 3286 km, 32.9° (Epoch: 13 May)

Event Time Altitude Azimuth Distance (km) Brightness Sun altitude
Exits shadow 02:53:59 24° 38° (NE) 1,675 8.5 -37.1°
Maximum altitude 02:54:21 24° 44° (NE) 1,699 8.6 -37.0°
Drops below altitude 10° 02:59:59 10° 96° (E) 3,125 10.4 -35.6°
Sets 03:04:15 0° 108° (ESE) 4,597 11.4 -34.6°
